www.pogodaiklimat.ru

Погода и климат >> Архив погоды >> Литва >> Vilnius


АРХИВ ПОГОДЫ в Vilnius

Время (UTC), дата Ветер
(напр.,м/с)
 
Видим.   Явления Облачность Т
(С)
Тd
(С)
f
(%)
Тe
(С)
Тes
(С)
Комфортность P
(гПа)
Po
(гПа)
Тmin
(С)
Tmax
(С)
R
(мм)
R24
(мм)
S
(см)
21 11.12 С 1-3
{4}
2400 м слабый снег {дождь} 10/0 90 м
[As op]
-0.4 -0.4 100 -3 -3 по сезону 1017.0 997.3
00 12.12 С 1-3
{4}
9000 м слабый снег {дождь} 10/0 90 м
[As op]
-0.7 -1.0 98 -3 -3 по сезону 1017.8 998.1
03 12.12 С 1-3
{3}
3500 м слабый снег {дождь} 10/0 90 м
[As op]
-0.7 -0.7 100 -3 -3 по сезону 1018.6 998.9
06 12.12 С 1-3
{4}
700 м слабый снег {дождь} ?/? -0.3 -0.4 99 -3 -3 по сезону 1020.0 1000.3 -0.8 0.5
09 12.12 С 2-4
{4}
6000 м в посл. час дождь со снегом 10/10 90 м
[St]
+0.2 0.0 99 -4 -4 по сезону 1021.3 1001.6
12 12.12 С 2-5
{5}
7000 м слабый дождь {снег} 10/0 90 м
[As op]
+0.6 +0.3 98 -3 -3 по сезону 1021.6 1001.9
15 12.12 С 3-6
{6}
7000 м дымка {дождь} 10/10 150 м
[St]
+0.7 +0.5 99 -4 -4 по сезону 1022.4 1002.7
18 12.12 С 3-7
{8}
20 км {дождь} 10/10 150 м
[St]
+0.1 -0.7 94 -5 -5 по сезону 1023.3 1003.6 +0.7 0.2
21 12.12 С 3-6
{7}
20 км 10/10 330 м
[St]
+0.1 -1.1 92 -5 -5 по сезону 1023.6 1003.8
00 13.12 С 2-5
{8}
11 км слабый дождь со снегом 10/0 480 м
[As op]
-0.3 -1.9 89 -4 -4 по сезону 1023.7 1003.9
03 13.12 СВ 2-5
{9}
9000 м слабый снег {дождь} 10/0 540 м
[As op]
-0.5 -1.5 93 -4 -4 по сезону 1023.5 1003.7
06 13.12 СВ 4-7
{9}
20 км {снег, дождь} 10/10 270 м
[St]
-1.0 -2.4 90 -7 -7 по сезону 1023.5 1003.7 -1.0 0.0 0
09 13.12 С 3-6
{8}
20 км 10/10 300 м
[St]
-1.0 -2.4 90 -6 -6 по сезону 1023.8 1004.0
12 13.12 С 1-4
{6}
19 км в посл. час снег 10/10 720 м
[Sc]
-0.7 -2.9 85 -3 -3 по сезону 1023.3 1003.5
15 13.12 С 2-5
{6}
15 км слабый снег 10/0 360 м
[As op]
-0.7 -2.6 87 -4 -4 по сезону 1023.9 1004.1
18 13.12 СВ 3-6
{8}
20 км {снег} 10/10 330 м
[St]
-0.6 -2.5 87 -5 -5 по сезону 1024.4 1004.6 -0.5 0.0
21 13.12 СВ 3-5
{7}
14 км слабый снег 10/0 300 м
[As op]
-0.8 -2.3 90 -6 -6 по сезону 1025.0 1005.2
00 14.12 СВ 3-5
{6}
19 км слабый снег 10/0 330 м
[As op]
-0.8 -2.0 92 -6 -6 по сезону 1025.4 1005.5
03 14.12 СВ 2-4
{5}
15 км слабый снег 10/0 240 м
[As op]
-0.8 -2.0 92 -5 -5 по сезону 1025.8 1005.9
06 14.12 СВ 2-4
{6}
19 км в посл. час снег 10/10 240 м
[St]
-0.8 -1.8 93 -5 -5 по сезону 1026.8 1006.9 -0.9 0.0
09 14.12 СВ 2-5
{5}
17 км {снег} 10/10 270 м
[St]
-0.4 -1.7 91 -4 -4 по сезону 1028.2 1008.3
12 14.12 В 2-4
{7}
16 км слабый снег 10/0 300 м
[As op]
-0.1 -2.0 87 -4 -4 по сезону 1028.8 1008.9
15 14.12 СВ 3-4
{7}
19 км слабый снег 10/0 270 м
[As op]
-0.4 -1.7 91 -5 -5 по сезону 1029.8 1009.9
18 14.12 В 2-4
{6}
16 км слабый снег 10/0 360 м
[As op]
-0.5 -2.2 88 -4 -4 по сезону 1030.5 1010.6 -0.1 0.0
21 14.12 В 1-3
{6}
16 км слабый снег 10/0 420 м
[As op]
-0.7 -2.4 88 -3 -3 по сезону 1031.4 1011.4
00 15.12 СВ 2-3
{5}
14 км в посл. час снег 10/10 270 м
[St]
-1.0 -1.9 94 -5 -5 по сезону 1031.7 1011.7
03 15.12 СВ 1-3
{4}
12 км слабый снег 10/0 270 м
[As op]
-1.0 -2.3 91 -3 -3 по сезону 1032.1 1012.1
06 15.12 СВ 1-3
{4}
15 км слабый снег 10/0 480 м
[As op]
-1.2 -2.3 92 -3 -3 по сезону 1032.6 1012.6 -1.2 0.0
09 15.12 В 2-3
{5}
18 км {снег} 10/10 540 м
[Cu Sc]
-1.0 -2.7 88 -5 -5 по сезону 1033.6 1013.6
12 15.12 В 2-4
{5}
20 км {снег} 10/10 420 м
[St]
-0.6 -3.1 83 -4 -4 по сезону 1033.3 1013.3
15 15.12 В 3-6
{6}
20 км 10/10 330 м
[St]
-1.0 -3.0 86 -6 -6 по сезону 1033.9 1013.9
18 15.12 В 3-5
{7}
20 км {снег} 10/10 300 м
[St]
-1.2 -3.0 88 -6 -6 по сезону 1033.2 1013.2 -0.5 0.0
21 15.12 В 2-4
{8}
19 км 10/10 270 м
[St]
-1.4 -3.1 88 -5 -5 по сезону 1033.0 1013.0
00 16.12 ЮВ 3-5
{6}
18 км в посл. час снег 10/10 300 м
[St]
-1.7 -3.3 89 -7 -7 по сезону 1032.0 1011.9
03 16.12 ЮВ 5-8
{9}
20 км в посл. час снег 10/10 270 м
[St]
-2.2 -4.2 86 -9 -9 по сезону 1030.8 1010.7
06 16.12 ЮВ 4-8
{10}
18 км {снег} 10/10 300 м
[St]
-2.1 -3.9 87 -8 -8 по сезону 1029.5 1009.5 -2.4 0.0
09 16.12 ЮВ 6-10
{10}
16 км 10/10 360 м
[St]
-1.6 -3.7 86 -9 -9 по сезону 1029.2 1009.2
12 16.12 ЮВ 5-10
{10}
18 км {снег} 10/10 360 м
[St]
-1.7 -3.9 85 -8 -8 по сезону 1027.0 1007.0
15 16.12 ЮВ 5-8
{10}
20 км 10/10 400 м
[St]
-2.0 -4.3 84 -9 -9 по сезону 1026.4 1006.4
18 16.12 ЮВ 4-6
{11}
3500 м снег 10/0 180 м
[As op]
-2.5 -3.3 94 -9 -9 по сезону 1025.8 1005.8 -1.5 0.9
21 16.12 ЮВ 5-8
{9}
2200 м снег 10/0 360 м
[As op]
-2.6 -3.5 94 -9 -9 по сезону 1025.7 1005.7
00 17.12 ЮВ 5-7
{10}
2200 м снег 10/0 270 м
[As op]
-2.9 -3.9 93 -10 -10 по сезону 1025.4 1005.4
03 17.12 ЮВ 5-8
{10}
4700 м снег 10/0 240 м
[As op]
-3.3 -4.5 91 -10 -10 по сезону 1025.0 1005.0
06 17.12 ЮВ 5-7
{9}
5000 м слабый снег 10/0 330 м
[As op]
-3.4 -5.0 89 -10 -10 по сезону 1025.3 1005.3 -3.5 6 5
09 17.12 ЮВ 4-7
{8}
4100 м слабый снег 10/0 270 м
[As op]
-3.3 -4.7 90 -10 -9 по сезону 1026.4 1006.3
12 17.12 ЮВ 4-5
{7}
5000 м слабый снег 10/0 330 м
[As op]
-3.0 -4.6 89 -9 -9 по сезону 1025.8 1005.8
15 17.12 ЮВ 2-4
{5}
3500 м слабый снег 10/0 400 м
[As op]
-3.4 -4.1 95 -8 -8 по сезону 1026.4 1006.3
18 17.12 ЮВ 2-4
{5}
6000 м слабый снег 10/0
[As op]
-4.0 -4.7 95 -8 -8 по сезону 1027.3 1007.2 -2.9 5
21 17.12 ЮВ 1-3
{5}
1500 м слабый снег 10/0
[As op]
-4.3 -5.0 95 -7 -7 по сезону 1028.0 1007.8
00 18.12 ЮВ 2-3
{4}
5000 м слабый снег 10/0
[As op]
-4.3 -5.0 95 -9 -9 по сезону 1028.1 1007.9
03 18.12 ЮВ 2-4
{4}
9000 м дымка {снег} 10/10 270 м
[St]
-4.3 -5.2 93 -9 -9 по сезону 1028.5 1008.3
06 18.12 Ю 3-4
{4}
4400 м дымка {снег} 10/10 90 м
[St]
-4.3 -4.9 96 -10 -10 по сезону 1029.0 1008.8 -4.4 3 14
09 18.12 Ю 3-4
{4}
2900 м слабый снег 10/0 90 м
[As op]
-4.1 -4.4 98 -10 -10 по сезону 1030.4 1010.2
12 18.12 ЮВ 2-3
{4}
5000 м слабый снег 10/0 150 м
[As op]
-3.9 -4.6 95 -8 -8 по сезону 1030.6 1010.4
15 18.12 ЮВ 2-3
{3}
5000 м слабый снег 10/0 180 м
[As op]
-4.5 -5.5 93 -9 -9 по сезону 1031.2 1011.0

 

Местоположение метеостанции Vilnius (Литва): широта 54.63 долгота 25.28 высота над уровнем моря 156 м.

В архиве по умолчанию представлена погода в Vilnius за последнюю неделю. Архивные данные за месяц целиком и за предыдущие месяцы, начиная с января 2011 года, Вы можете получить, выбрав интересующий диапазон дат из раскрывающегося списка и нажав кнопку "Ввод!".


*Определитесь, кто Вы:
робот инопланетянин человек

Внимание! Время в таблицах - всемирное. Для получения местного времени необходимо прибавить поправку, которая в Vilnius равна 2 ч.

Смотрите также архив погоды в соседних городах и на ближайших метеорологических станциях:

Погода в Ошмянах (Гродненская область, Беларусь) (47 км)
Погода в Varena (Литва) (63 км)
Погода в Ukmerge (Литва) (78 км)
Погода в Лынтупах (Витебская область, Беларусь) (81 км)
Погода в ?ven?ionys (Литва) (81 км)
Погода в Лиде (Гродненская область, Беларусь) (81 км)
Погода в Alytus (Литва) (82 км)
Погода в Kauno (Литва) (97 км)
Погода в Нарочи (Минская область, Беларусь) (97 км)
Погода в Воложине (Минская область, Беларусь) (100 км)

Пояснения к столбцам:

Ветер - указаны скорость ветра в м/с - средняя за 10 мин, порывы в срок и между сроками (в фигурных скобках) и направление, откуда дует ветер: С - северный, СВ - северо-восточный, В - восточный, ЮВ - юго-восточный, Ю - южный, ЮЗ - юго-западный, З - западный, СЗ - северо-западный.
Видимость - горизонтальная дальность видимости в метрах или километрах. При видимости от 1 до 10 км при отсутствии осадков обычно наблюдается дымка, при ухудшении видимости до 1 км и менее - туман. В сухую погоду видимость может ухудшаться дымом, пылью или мглою.
Явления - указаны атмосферные явления, наблюдавшиеся в срок или в последний час перед сроком; фигурными скобками обозначены явления, наблюдавшиеся между сроками (за 1-3 часа до срока); квадратными скобками обозначены град или гололедные отложения с указанием их диаметра в мм.
Облачность - указаны через наклонную черту общая и нижняя облачность в баллах и высота нижней границы облаков в метрах; квадратными скобками обозначены формы облаков: Ci - перистые, Cs - перисто-слоистые, Cc - перисто-кучевые, Ac - высококучевые, As - высокослоистые, Sc - слоисто-кучевые, Ns - слоисто-дождевые, Cu - кучевые, Cb - кучево-дождевые. Подробнее классификацию облаков см. в Атласе облаков (PDF).
T - Температура воздуха - температура, измеренная на высоте 2 м над землей.
Td - Температура точки росы - температура, при понижении до которой содержащийся в воздухе водяной пар достигнет насыщения.
f - Относительная влажность воздуха - влажноcть воздуха, измеренная на высоте 2 м над землей.
Te - Эффективная температура - температура, которую ощущает одетый по сезону человек в тени. Характеристика душности погоды. При расчете учитывается влияние влажности воздуха и скорости ветра на теплоощущения человека.
Tes - Эффективная температура на солнце - температура, которую ощущает человек, с поправкой на солнечный нагрев. Характеристика знойности погоды. Зависит от высоты солнца над горизонтом, облачности и скорости ветра. Ночью, в пасмурную погоду, а также при ветре 12 м/с и более поправка равна нулю.
P - Атмосферное давление - приведенное к уровню моря атмосферное давление.
Po - Атмосферное давление - измеренное на уровне метеостанции атмосферное давление.
Tmin - Минимальная температура - минимум температуры воздуха на высоте 2 м над землей.
Tmax - Максимальная температура - максимум температуры воздуха на высоте 2 м над землей.
R - Количество осадков - Количество выпавших осадков за период времени, мм. При наведении курсора мыши на число - период времени, за который выпало указанное количество осадков.
R24 - Количество осадков - Количество выпавших осадков за 24 часа, мм.
S - Снежный покров - Высота снежного покрова, см. При наведении курсора мыши на число - состояние снежного покрова и степень покрытия местности в баллах.